EHI
0 0 0 0 0 0 0 0 0 0 0 0 0 1 1 2 4 6 8 8 7 6 4 4 6 7 8 10 11 12 11 10 10 8 5 4 3 2 1 0 0 1 2 2
0 0 0 0 0 0 0 0 0 0 0 0 0 1 2 2 3 4 6 7 7 6 4 4 6 7 8 9 11 11 11 10 9 8 5 4 3 3 2 1 1 1 1 2
0 0 0 0 0 0 0 0 0 0 0 0 0 1 1 1 1 2 4 6 7 6 5 6 7 7 7 8 9 10 10 9 8 7 5 3 3 3 3 2 2 2 2 2
0 0 0 0 0 0 0 0 0 0 0 0 0 0 0 0 0 1 3 6 7 6 6 7 9 8 7 6 6 8 9 8 7 5 4 3 3 3 2 2 1 2 1 1
0 0 0 0 0 0 0 0 0 0 0 0 0 0 1 0 0 1 3 5 6 6 5 6 7 7 6 4 4 6 8 7 6 4 3 3 3 2 1 1 0 0 0 0
0 0 0 0 0 0 0 0 0 0 0 0 0 0 1 1 0 0 2 4 5 5 5 4 4 4 4 3 4 6 7 6 5 4 3 3 2 1 0 0 0 0 0 0
0 0 0 0 0 0 0 0 0 0 0 0 0 0 1 1 0 0 1 4 4 5 5 3 2 3 3 3 4 6 6 4 4 3 3 3 2 0 0 0 0 0 0 0
0 0 0 0 0 0 0 0 0 0 0 0 0 0 1 1 0 0 1 3 5 5 5 3 1 2 3 3 4 5 4 2 2 3 3 3 2 1 0 0 0 0 0 0
0 0 0 0 0 0 0 0 0 0 0 0 0 0 0 0 0 0 1 3 4 5 4 1 1 2 3 3 3 4 3 1 1 3 3 3 3 1 0 0 0 0 0 0
0 0 0 0 0 0 0 0 0 0 0 0 0 0 0 0 0 0 1 3 4 4 3 1 0 1 1 3 3 3 3 2 1 2 3 3 3 2 0 0 0 0 0 0
0 0 0 0 0 0 0 0 0 0 0 0 0 0 0 0 0 0 1 2 4 4 3 1 0 0 1 2 3 3 3 3 2 2 2 2 2 1 0 0 0 0 0 0
0 0 0 0 0 0 0 0 0 0 0 0 0 0 0 0 0 0 0 2 5 6 4 1 0 0 0 1 2 3 3 3 2 1 1 1 1 0 0 0 0 0 0 0
0 0 0 0 0 0 0 0 0 0 0 0 0 0 0 0 0 0 0 2 4 5 4 1 0 0 0 0 1 3 3 3 2 0 0 0 0 0 0 0 0 0 0 0
0 0 0 0 0 0 0 0 0 0 0 0 0 0 0 0 0 0 0 1 2 2 3 1 0 0 0 0 1 2 3 3 2 1 0 0 0 0 0 0 0 0 0 0
0 0 0 0 0 0 0 0 0 0 0 0 0 0 0 0 0 0 1 1 1 1 2 2 1 0 0 0 0 1 2 3 2 1 0 0 0 0 0 0 0 0 0 0
0 0 0 0 0 0 0 0 0 0 0 0 0 0 0 0 0 0 1 2 1 1 3 4 3 1 1 1 1 1 2 3 2 1 0 0 0 0 0 0 0 0 0 0
0 0 0 0 0 0 0 0 0 0 0 0 0 0 0 0 0 0 1 1 1 2 4 5 4 2 2 2 1 1 2 3 2 1 0 0 0 0 0 0 0 0 0 0
0 0 0 0 0 0 0 0 0 0 0 0 0 0 0 0 0 0 0 0 1 2 3 4 3 1 1 1 1 1 2 2 1 0 0 0 0 0 0 0 0 0 0 0
0 0 0 0 0 0 0 0 0 0 0 0 0 0 0 1 1 0 0 0 0 1 1 2 1 0 0 0 0 1 1 1 0 0 0 0 0 0 0 0 0 0 0 0
0 0 0 0 0 0 0 0 0 0 0 0 0 0 0 1 1 0 0 0 0 0 0 0 0 0 0 0 0 0 0 0 0 0 0 0 0 0 0 0 0 0 0 0
0 0 0 0 0 0 0 0 0 0 0 0 0 0 0 1 1 0 0 0 0 0 0 0 0 0 0 0 0 0 0 0 0 0 0 0 0 0 0 0 0 0 0 0
0 0 0 0 0 0 0 0 0 0 0 0 0 0 0 0 0 0 0 0 0 0 0 0 0 0 0 0 0 0 0 0 0 0 0 0 0 0 0 0 0 0 0 0
0 0 0 0 0 0 0 0 0 0 0 0 0 0 0 0 0 0 0 0 0 0 0 0 0 0 0 0 0 0 0 0 0 0 0 0 0 0 0 0 0 0 0 0
0 0 0 0 0 0 0 0 0 0 0 0 0 0 0 0 0 0 0 0 0 0 0 0 0 0 0 0 0 0 0 0 0 0 0 0 0 0 0 0 0 0 0 0
0 0 0 0 0 0 0 0 0 0 0 0 0 0 0 0 0 0 0 0 0 0 0 0 0 0 0 0 0 0 0 0 0 0 0 0 0 0 0 0 0 0 0 0
0 0 0 0 0 0 0 0 0 0 0 0 0 0 0 0 0 0 0 0 0 0 0 0 0 0 0 0 0 0 0 0 0 0 0 0 0 0 0 0 0 0 0 0
Wind_Speed
3 4 5 8 8 6 4 3 4 5 3 1 3 5 5 2 2 2 3 4 5 5 4 4 5 5 6 5 5 5 5 4 4 3 3 2 2 1 1 1 2 3 3 3
3 5 9 5 4 3 3 3 4 4 2 2 3 4 3 2 3 4 5 4 4 4 3 5 5 5 6 6 6 5 5 5 4 3 3 2 2 1 1 1 1 2 3 4
8 7 4 4 4 4 4 5 5 4 3 2 2 4 2 1 1 1 1 2 3 5 5 5 5 5 5 6 7 6 6 5 5 4 3 3 3 2 1 0 1 1 3 3
6 6 3 4 5 6 5 6 6 3 1 3 0 3 4 2 1 1 2 2 3 4 4 4 5 5 6 6 5 5 5 5 4 5 5 5 4 3 3 2 1 1 1 2
7 5 5 7 7 7 7 2 3 3 3 1 1 2 6 1 2 4 4 3 3 4 5 5 5 5 5 4 4 4 4 4 4 5 5 5 3 2 2 2 2 1 1 2
6 4 6 7 4 5 4 4 4 4 4 1 4 4 6 2 4 4 3 2 3 4 4 4 4 4 4 4 4 4 5 4 4 4 4 5 5 4 3 2 2 1 1 1
4 3 3 3 2 1 4 5 3 3 2 5 2 3 6 4 3 4 4 3 4 4 4 4 4 4 4 5 4 5 5 5 4 5 5 5 5 5 5 4 3 2 2 1
3 5 4 3 5 6 5 8 7 5 5 4 1 4 5 3 2 1 1 2 3 4 4 4 4 4 4 4 4 4 5 5 5 5 5 5 4 3 3 4 3 3 3 2
6 6 3 2 3 7 5 4 5 6 2 1 3 3 5 1 1 0 1 3 4 4 4 4 3 4 4 4 4 4 5 4 4 4 4 3 4 4 4 3 3 2 2 2
6 4 3 1 3 2 5 7 5 5 4 3 3 4 5 4 4 3 3 3 3 3 3 3 3 3 3 3 2 2 3 4 4 3 3 3 3 4 3 3 3 3 3 3
3 4 2 1 3 4 3 3 4 4 4 5 4 6 5 6 6 5 5 5 5 5 5 4 3 3 3 2 2 3 2 2 2 3 2 2 2 2 3 3 4 4 3 3
2 4 2 4 3 3 5 5 6 5 4 4 3 7 3 2 3 4 4 4 4 4 4 3 3 2 2 3 3 3 3 3 2 2 2 2 2 2 2 3 3 3 3 4
4 4 1 4 3 2 1 2 4 4 4 4 4 6 2 1 1 1 2 3 3 3 3 2 3 3 3 3 3 3 3 3 2 2 2 2 2 2 2 2 2 2 3 3
5 3 5 6 5 2 1 1 3 5 4 4 6 5 4 2 1 1 1 2 3 3 3 3 3 3 3 3 3 3 3 3 3 2 2 2 2 2 2 2 2 2 2 2
4 3 3 3 3 2 1 1 2 4 6 6 6 5 4 4 3 2 1 3 4 3 3 3 3 2 2 2 2 2 2 2 2 3 2 2 2 2 2 2 1 1 2 3
3 3 1 1 1 1 1 3 2 3 2 3 2 3 2 0 2 2 2 4 4 4 4 3 2 3 3 3 3 3 3 2 2 2 2 2 1 2 2 2 1 1 1 2
1 3 2 2 2 1 2 3 2 1 0 2 4 4 0 1 0 1 2 3 3 3 3 3 3 3 3 4 4 4 3 2 3 2 2 2 2 2 2 1 1 1 2 2
3 2 2 1 1 3 4 0 2 3 1 2 0 0 1 1 1 1 1 1 2 2 2 2 2 2 2 2 2 2 3 3 3 2 2 2 2 1 1 1 1 2 2 2
4 5 3 3 2 2 1 1 1 1 0 2 1 2 2 3 4 3 3 2 0 1 2 2 1 2 2 2 3 3 2 2 2 2 2 2 2 2 1 2 2 2 2 2
4 3 3 2 3 4 3 5 4 1 1 3 1 1 1 3 2 2 3 3 3 2 1 2 2 3 3 2 3 4 3 2 1 1 1 1 2 2 2 2 2 2 2 2
2 2 2 2 2 2 4 6 2 2 4 3 0 1 2 1 2 1 2 3 2 2 2 2 3 3 2 2 3 3 2 1 1 1 0 0 1 1 2 1 1 1 1 1
1 1 1 1 1 3 6 4 1 2 2 1 0 1 2 2 2 2 2 2 2 2 2 2 2 2 1 2 3 2 1 1 0 1 1 0 0 0 0 0 1 1 1 1
1 1 2 2 2 2 3 1 2 1 1 1 1 1 2 2 2 2 2 2 2 1 1 2 2 2 2 1 2 1 1 0 1 1 1 0 1 0 0 0 0 1 0 1
2 1 1 0 1 3 4 4 5 4 2 2 2 2 3 2 1 1 1 1 2 1 1 1 2 2 1 1 0 1 1 1 2 1 1 0 0 1 1 0 0 0 1 1
2 1 1 1 2 4 4 5 5 4 4 4 4 3 2 2 1 1 0 1 1 1 1 1 1 1 1 2 1 1 0 1 1 1 1 0 0 0 0 1 1 2 2 3
1 0 1 2 2 1 4 4 4 3 3 3 3 3 3 2 0 0 0 1 1 1 1 1 1 1 0 1 1 1 0 1 2 1 0 0 0 1 1 1 2 2 3 3
Wind_Direction
129 109 204 213 198 193 190 212 253 260 256 239 263 278 292 283 171 188 200 204 205 205 195 176 176 168 155 156 160 167 168 166 154 144 144 147 163 155 149 167 176 168 163 164
68 239 227 206 186 178 192 230 259 281 279 217 257 277 266 198 195 192 188 192 196 194 177 176 174 167 163 168 168 169 174 167 163 157 150 145 136 144 157 165 160 171 169 171
191 233 195 167 180 193 213 206 225 242 328 342 312 315 307 277 210 174 164 164 174 182 178 178 172 169 167 174 178 180 178 164 158 148 126 111 93 74 72 149 187 193 178 176
222 242 191 201 210 184 244 226 202 208 194 287 181 279 292 273 288 246 220 181 179 178 169 172 167 168 176 181 178 172 167 161 160 150 151 156 161 172 196 193 190 197 181 172
229 202 187 208 218 182 215 210 177 189 178 255 285 207 282 317 287 264 237 206 183 173 168 169 172 171 167 168 169 165 159 159 158 156 161 162 172 184 172 164 168 187 184 160
232 213 193 206 208 180 159 75 51 54 85 243 230 186 270 241 240 259 251 204 174 164 157 150 145 139 142 149 162 161 158 165 163 162 164 173 183 178 174 186 184 187 179 164
283 268 229 176 144 105 114 100 28 352 3 246 228 188 246 241 237 232 228 205 176 154 145 142 143 152 153 160 171 164 165 175 172 171 176 188 195 187 191 195 192 189 190 195
204 269 232 183 177 180 173 148 165 199 219 261 239 219 247 250 244 238 193 165 148 140 142 148 164 169 168 170 173 169 173 179 177 181 189 192 194 197 204 199 190 192 198 203
186 241 258 194 171 147 147 180 173 141 176 227 256 265 291 278 353 83 134 141 155 155 153 158 162 172 177 180 181 182 180 181 184 189 186 190 197 199 202 196 183 183 195 199
168 218 270 230 84 55 144 148 109 131 166 219 252 245 240 234 235 226 199 183 177 157 162 162 165 181 187 183 171 168 174 182 186 187 188 191 200 201 193 178 188 195 201 202
146 173 292 90 165 186 116 122 128 138 168 168 224 259 233 214 209 204 210 190 181 175 174 172 183 190 178 154 148 156 157 161 175 186 189 185 195 190 183 190 204 204 200 197
147 133 234 250 244 195 162 167 150 158 216 190 187 259 292 198 204 204 199 181 181 177 171 171 167 154 152 161 165 170 169 173 183 179 176 184 184 173 178 198 208 203 203 205
133 120 71 338 346 19 105 163 162 141 136 170 184 256 325 69 103 178 170 177 170 162 154 150 152 160 169 177 181 183 180 184 180 163 157 155 168 173 188 203 204 195 202 209
121 124 170 202 223 204 211 214 159 143 168 200 213 234 284 313 295 277 185 165 151 154 155 161 172 176 180 178 180 186 192 180 167 159 159 167 184 189 196 202 207 202 199 203
103 154 197 225 226 163 174 259 194 188 191 191 216 212 236 240 243 240 170 141 131 144 156 170 180 179 175 171 176 180 181 167 160 158 163 188 192 190 179 181 207 213 209 216
60 156 155 266 218 134 18 304 246 230 218 204 182 243 264 251 88 97 142 149 155 170 171 174 171 170 177 181 179 175 176 170 153 157 176 178 170 174 175 190 199 207 234 233
344 146 143 243 269 43 298 265 202 167 253 173 204 236 178 69 165 190 178 163 172 180 176 180 195 194 186 187 176 177 178 163 155 166 175 169 164 176 199 209 200 226 234 235
162 136 147 167 96 218 236 66 127 134 60 348 302 205 180 163 342 98 112 152 194 192 186 188 197 198 197 168 149 157 155 150 156 166 177 174 166 177 196 210 237 243 239 238
163 149 141 140 168 252 285 19 3 157 288 344 50 56 55 72 64 38 18 25 355 200 175 176 178 154 134 134 144 135 133 139 153 176 193 196 190 189 202 233 255 260 248 252
69 93 120 138 163 219 273 320 315 117 287 328 50 97 106 88 76 301 341 0 14 27 79 100 90 91 102 115 130 130 133 132 168 202 217 214 199 198 216 231 246 250 241 252
34 41 99 143 190 263 333 325 10 142 258 301 316 121 104 113 184 223 2 7 15 37 74 96 93 92 105 118 120 127 130 168 215 205 213 216 199 212 219 226 239 251 252 270
97 104 114 122 164 268 341 10 57 253 295 321 93 112 95 92 85 72 53 29 28 50 81 101 97 65 51 91 111 122 181 233 152 96 72 353 284 266 267 252 296 278 217 250
61 182 188 186 197 294 336 352 315 304 310 335 93 88 103 87 74 64 57 45 52 71 92 92 98 64 29 57 117 150 256 225 111 96 88 1 18 31 40 196 281 325 283 248
347 25 112 23 5 356 1 8 8 11 15 22 67 82 95 89 73 62 55 79 74 67 93 91 91 73 14 355 12 205 210 159 129 122 103 49 62 18 8 28 193 249 257 254
305 357 28 14 333 353 2 360 355 9 33 43 43 49 84 89 42 52 74 112 113 86 73 101 114 95 354 342 338 334 157 120 112 115 96 69 214 217 291 302 260 239 239 220
323 188 159 234 254 238 284 311 337 -0 16 29 42 34 35 76 112 9 131 145 130 122 112 107 93 89 2 360 344 343 330 141 137 129 116 192 281 297 312 325 325 301 258 265